Terminal Aerodrome Forecast
Issued by NWS

Home | Current Version | Previous Version | Text Only | Print | Product List | Glossary On
Versions: 1 2 3 4 5 6 7 8 9 10 11 12
000
FTUS45 KMSO 200520
TAFSMN
TAF
KSMN 200520Z 2006/2106 34009KT P6SM SCT060
     FM200900 VRB03KT 6SM FU SKC
     FM201900 35005KT 6SM FU SCT120
      AMD LTD TO CLD VIS AND WIND=

USA.gov is the U.S. government's official web portal to all federal, state and local government web resources and services.